{"data":{"norad_id":40921,"epoch":"2026-09-20T04:07:01.107840Z","epoch_age_seconds":69391,"freshness":"FRESH","line1":"1 40921U 15050B   26263.17154060  .00000088  00000+0  56709-3 0  9995","line2":"2 40921  82.4919  18.9870 0014568 173.2440 186.8838 12.42918322498646","mean_motion":12.42918322,"eccentricity":0.0014568,"inclination_deg":82.4919,"raan_deg":18.987,"arg_perigee_deg":173.244,"mean_anomaly_deg":186.8838,"bstar":0.00056709,"rev_number":49864,"period_min":115.85636598251,"perigee_km":1482.7877655025,"apogee_km":1505.7247705282,"semimajor_km":7872.3932680154,"source":"CELESTRAK","updated_at":"2026-09-20T09:00:14.105521Z"}}